METAR Formatted Surface Weather Observation
Issued by NWS

Home | Current Version | Previous Version | Text Only | Print | Product List | Glossary On
Versions: 1 2 3 4 5 6 7 8 9 10 11 12 13 14 15 16 17 18 19 20 21 22 23 24 25 26 27 28 29 30 31 32 33 34 35 36 37 38 39 40 41 42 43 44 45 46 47 48 49 50
000
SAUS41 KAKQ 060900
MTRNTU
METAR KNTU 060856Z 01019G25KT 10SM FEW026 OVC090 M03/M07 A3040 RMK
AO2 PK WND 01029/0815 CIG 027 RWY 05R SLP297 T10281072 50007 $



USA.gov is the U.S. government's official web portal to all federal, state and local government web resources and services.